Theta_e
310 310 310 310 309 306 306 307 300 311 309 300 301 295 294 294 296 299 297 297 295 292 293 291 292 290 293 298 298 292 296 292 287 289 295 297 296 294 292 285 284 288 287 286
310 310 310 310 308 306 305 302 302 311 309 295 296 297 295 296 296 297 295 294 296 296 292 289 293 294 297 298 296 293 296 291 284 287 290 294 291 294 294 293 292 287 283 287
310 309 309 309 308 306 306 302 297 303 306 303 295 295 294 293 297 296 297 296 297 295 292 295 292 292 296 298 297 299 297 292 286 284 286 288 287 292 293 291 284 288 287 290
310 308 308 308 308 306 307 304 300 300 295 296 297 298 297 292 292 297 298 295 294 293 289 291 291 293 295 297 299 297 295 289 291 292 291 291 291 291 291 291 292 288 290 290
308 308 307 307 307 305 304 298 297 299 296 298 296 295 294 292 293 294 293 294 295 295 289 290 289 292 293 292 298 296 298 288 291 288 292 292 289 292 292 292 292 291 292 291
306 306 307 307 306 305 300 300 301 297 294 296 295 295 295 294 295 295 296 295 295 294 295 297 297 299 299 297 294 294 291 291 289 284 289 289 285 290 292 293 294 293 289 295
304 304 305 305 305 305 303 302 303 293 292 294 294 294 295 293 293 292 297 298 297 300 303 303 303 302 301 300 298 298 290 289 289 286 287 279 291 297 295 294 295 297 298 300
303 303 304 305 305 306 304 306 302 295 289 293 294 295 294 295 297 295 296 298 302 304 301 295 294 295 292 297 299 297 297 289 286 285 284 288 291 292 292 291 291 298 298 300
303 303 303 303 304 305 305 305 308 301 290 295 296 294 295 291 291 295 297 302 305 304 297 294 289 287 290 290 292 300 296 292 287 287 281 279 289 295 297 296 286 295 296 298
302 302 302 303 303 303 304 303 310 301 293 298 297 292 291 294 293 290 296 296 298 302 294 291 288 289 293 288 288 289 291 291 285 285 284 288 293 296 296 285 289 296 297 298
301 301 302 302 302 303 303 302 306 301 295 298 300 301 295 294 294 289 295 294 296 296 291 291 291 290 292 291 292 291 289 287 287 288 285 282 298 294 287 294 296 296 297 299
300 301 301 301 301 302 303 299 305 310 299 298 304 303 303 300 299 296 295 294 293 296 294 293 294 291 294 292 286 297 289 293 289 289 290 299 300 297 298 299 297 297 298 300
300 300 301 301 302 302 302 299 302 302 297 298 300 300 307 309 307 306 292 295 299 299 302 295 291 289 296 289 292 293 297 300 294 293 296 297 299 299 301 300 299 300 300 299
300 300 301 302 303 303 302 300 302 303 298 292 298 307 304 307 307 306 306 304 305 305 302 294 291 289 298 293 295 295 298 299 295 295 298 297 297 299 299 299 298 299 300 300
300 301 301 302 303 303 303 302 304 304 296 292 294 301 307 308 308 305 304 303 301 297 294 292 290 295 295 296 298 296 300 296 294 292 299 297 297 299 299 296 296 297 298 300
300 301 301 302 303 303 300 295 305 304 303 292 287 304 303 306 306 304 302 301 299 297 293 293 297 301 297 291 291 300 301 302 302 299 302 301 300 300 299 295 296 298 300 301
301 302 302 302 302 302 297 298 300 303 303 292 289 293 302 307 306 305 302 303 299 297 294 292 295 299 298 295 292 300 301 302 302 303 302 299 299 296 298 297 296 299 300 302
302 302 302 302 302 302 299 304 304 305 298 295 289 292 298 307 302 297 302 297 296 296 295 297 297 299 298 293 300 302 301 302 302 301 303 301 301 300 298 297 296 297 298 300
301 302 302 303 302 297 301 306 306 303 297 290 290 290 293 304 301 306 302 302 292 299 293 295 298 297 294 299 301 300 302 302 301 302 301 301 299 296 296 294 295 295 297 298
301 302 301 300 303 300 303 301 298 294 294 292 289 297 292 299 298 298 301 301 296 291 297 302 298 297 303 304 303 304 303 304 304 299 298 298 297 296 296 295 296 297 297 298
300 296 295 300 302 300 299 294 293 291 288 292 294 296 292 299 294 294 300 297 297 291 298 296 295 297 301 304 304 304 305 305 305 303 302 301 298 297 296 295 295 296 298 297
295 295 298 298 295 293 290 289 293 292 290 296 295 296 298 298 301 297 299 295 297 290 302 295 293 297 303 303 302 304 304 305 305 303 301 300 299 298 297 297 296 295 297 298
300 295 290 290 292 284 285 284 289 290 298 300 301 298 295 296 298 297 298 291 293 301 295 294 297 301 303 303 304 304 305 305 305 303 301 300 300 299 297 297 297 296 297 297
293 289 285 288 287 289 292 291 292 296 296 295 297 295 293 295 293 296 291 297 300 292 289 291 299 302 303 304 305 305 304 305 304 303 302 300 300 300 298 298 298 296 295 296
289 289 282 287 292 293 293 296 296 298 298 298 296 297 294 288 286 288 293 291 289 292 293 300 302 305 305 304 306 305 304 304 305 304 302 301 301 300 298 298 298 295 295 295
290 288 286 290 289 289 290 291 294 298 295 296 297 293 291 289 288 287 290 289 288 296 302 302 305 305 307 307 306 306 305 306 306 305 303 302 302 301 300 298 297 295 293 292
287 288 292 291 290 289 290 292 292 296 295 290 293 288 290 289 286 287 295 292 296 301 305 307 308 308 308 307 305 307 306 306 307 306 304 303 304 304 302 299 299 298 294 293
Wind_Speed
19 20 21 21 22 24 13 6 5 5 4 5 3 6 7 3 7 4 7 8 11 10 12 15 17 19 11 16 12 18 16 9 15 21 23 6 13 16 9 13 14 18 17 16
19 19 19 19 20 17 11 7 6 5 3 3 6 8 10 3 8 8 6 7 12 13 14 10 11 17 14 15 14 6 9 6 12 15 4 12 11 19 8 7 12 18 13 14
18 18 19 19 19 19 11 6 5 1 1 1 6 10 9 7 2 9 7 9 15 11 13 14 10 17 10 13 16 17 11 14 15 16 21 7 8 17 14 12 7 21 19 19
15 17 18 20 18 22 10 5 3 4 5 6 11 12 11 11 10 2 9 7 5 10 12 20 19 13 22 19 18 12 5 15 18 22 23 20 19 17 16 17 20 21 21 19
16 15 16 17 16 23 4 6 6 7 11 8 9 6 7 8 9 11 15 16 13 15 13 16 25 23 20 11 13 8 11 15 17 20 21 21 22 20 18 20 21 25 22 24
15 17 15 15 14 11 3 3 2 4 9 7 8 6 7 11 15 11 9 8 15 18 18 16 19 22 22 17 12 16 9 12 14 14 10 16 16 16 16 15 18 18 22 22
15 15 14 12 12 8 2 4 0 3 8 10 9 10 12 12 12 16 21 19 17 16 17 22 22 24 20 16 9 8 5 7 4 11 11 8 12 5 8 13 16 16 20 20
14 14 13 12 10 9 3 4 4 1 8 13 16 8 7 12 15 16 18 17 12 13 16 13 14 4 1 10 14 13 11 1 5 5 8 15 18 6 5 8 17 17 21 21
15 14 13 12 12 10 9 4 3 4 4 3 17 17 16 11 12 16 8 14 12 11 8 7 10 6 7 5 5 10 6 2 3 9 6 5 3 8 8 9 14 10 11 14
15 15 14 12 11 11 8 7 7 4 7 11 6 7 10 8 8 8 13 8 8 3 3 4 4 7 7 5 8 7 8 4 6 10 8 5 6 15 8 6 5 17 14 13
14 15 14 14 12 12 9 8 6 7 8 16 23 20 14 11 8 8 9 9 2 8 4 3 4 4 5 6 11 8 5 5 5 5 6 3 15 10 3 12 18 18 17 16
14 14 14 13 12 12 11 10 6 4 6 13 22 25 25 23 20 11 3 7 8 5 3 4 6 4 4 11 5 7 4 3 4 4 5 14 12 10 8 14 13 15 15 15
15 15 15 15 13 13 11 9 9 7 6 13 15 12 11 16 19 15 8 6 8 6 0 0 2 6 5 6 8 11 12 10 6 10 6 12 16 9 9 14 17 15 14 16
16 17 16 16 14 13 11 9 8 3 5 7 4 3 9 7 10 14 16 18 4 6 2 1 4 4 6 6 12 14 11 12 12 13 12 13 1 11 14 20 19 18 16 19
18 18 17 16 15 13 11 9 10 10 4 6 10 24 13 12 14 18 14 13 14 5 2 4 5 4 5 5 9 10 10 7 8 8 13 8 10 11 15 19 18 18 17 18
20 19 18 18 17 13 6 5 3 4 5 3 5 10 13 7 7 8 11 9 8 5 3 3 5 7 5 4 7 15 12 9 9 7 10 10 8 10 15 17 17 17 18 16
20 21 21 20 17 9 7 5 3 3 5 3 6 7 4 10 6 2 4 8 5 5 3 5 7 12 4 4 11 17 12 9 10 11 8 11 11 8 14 15 17 17 16 12
22 22 23 19 12 7 8 11 12 6 2 3 5 6 8 12 5 5 4 4 3 5 4 4 6 4 4 7 9 8 6 10 11 13 8 8 11 14 14 14 14 15 13 12
25 25 20 4 5 4 2 9 4 5 3 3 4 4 4 4 7 5 7 6 5 4 5 4 5 6 7 7 7 6 7 10 12 13 12 13 14 14 16 15 16 14 13 13
28 13 7 6 3 1 7 5 4 4 4 5 5 8 9 10 6 4 5 5 4 3 7 5 5 9 9 7 5 6 6 8 10 11 14 15 16 14 14 14 14 14 13 14
5 5 3 7 8 5 5 5 6 4 4 5 6 11 10 5 6 5 4 2 4 4 4 4 3 2 3 3 4 2 4 6 9 10 11 12 12 13 14 13 15 15 15 14
11 11 12 6 5 5 4 4 4 6 6 5 5 1 4 2 3 4 4 3 4 5 2 3 2 3 7 7 5 6 3 7 9 12 11 12 13 14 14 14 12 12 12 13
6 4 4 3 4 2 5 6 5 5 6 5 3 1 0 3 4 5 3 5 5 4 3 3 1 5 4 8 4 5 2 5 8 11 10 12 13 15 15 12 11 12 11 11
4 4 4 6 3 5 4 7 8 7 6 8 4 2 2 1 3 3 5 5 1 4 3 1 1 8 5 11 5 9 3 7 8 11 11 12 13 14 14 12 13 11 11 11
5 4 5 4 7 8 5 4 6 8 9 9 5 4 3 2 3 3 5 4 5 4 2 3 7 6 7 6 10 8 3 3 8 10 10 11 12 13 13 13 14 13 13 14
4 4 6 8 10 11 10 10 6 4 5 11 4 5 4 4 3 4 7 3 2 1 1 2 5 3 2 4 6 9 2 6 7 9 9 8 10 12 12 12 13 13 13 13
5 4 6 8 9 9 11 11 11 7 5 4 5 5 3 2 2 2 4 4 5 8 6 7 7 4 3 4 3 5 3 5 6 7 8 8 9 10 10 11 12 12 12 13
Wind_Direction
335 334 334 333 336 338 327 302 272 70 328 262 279 264 6 334 279 262 270 291 301 294 321 309 298 299 323 329 328 309 309 292 287 286 289 215 239 257 234 244 246 254 255 277
336 336 336 336 336 350 325 315 291 119 290 307 329 314 300 242 294 309 303 280 299 301 292 296 288 305 313 311 311 329 344 294 308 289 51 13 339 310 240 294 289 265 286 271
339 341 344 339 337 335 317 296 317 89 128 107 310 330 308 292 162 286 284 282 283 301 295 281 280 292 317 319 309 299 277 270 260 276 294 175 219 251 287 236 252 268 247 255
351 353 347 346 338 327 308 322 18 11 315 330 324 296 295 288 295 288 297 289 267 286 305 312 287 306 313 308 296 282 237 264 274 279 285 292 290 279 257 255 264 272 292 297
351 349 345 348 352 331 276 337 336 352 288 289 281 287 285 311 302 322 302 287 310 308 279 273 286 295 294 300 301 294 295 274 274 283 290 287 281 271 253 257 266 270 260 270
351 348 351 354 358 345 342 13 319 325 293 277 282 284 319 322 330 299 283 298 281 290 296 297 279 277 284 273 251 285 287 280 284 266 317 320 292 266 270 275 261 276 263 274
347 349 352 356 359 13 313 306 349 288 291 328 306 298 300 293 293 282 296 298 283 302 311 300 285 260 247 235 206 197 227 275 259 275 282 245 292 61 345 314 297 285 295 304
338 341 341 339 344 346 278 271 290 254 288 324 290 269 265 301 281 284 283 283 305 324 301 291 289 303 261 242 233 207 214 185 278 270 245 274 290 40 17 345 294 293 288 291
334 335 340 338 336 343 295 292 246 280 296 241 344 314 304 297 303 287 283 343 311 293 290 283 282 309 350 318 298 191 210 156 220 313 296 291 101 45 346 329 268 20 338 312
331 333 331 329 327 326 302 268 227 266 273 269 279 298 318 306 287 277 294 340 304 235 294 281 292 315 354 305 332 299 308 217 230 274 276 244 42 349 336 234 7 326 318 315
328 326 327 324 322 315 304 289 272 258 273 280 278 278 279 262 243 258 328 304 220 273 248 294 349 311 317 307 306 290 282 313 304 305 289 339 352 347 227 324 305 303 303 299
323 320 318 313 310 309 310 286 283 252 251 275 298 281 271 251 249 262 227 290 316 291 317 4 321 298 284 292 275 317 316 327 272 243 290 314 311 298 298 285 279 294 296 299
319 314 310 306 304 300 299 278 273 288 273 277 258 254 232 219 228 227 235 246 224 234 50 11 278 280 297 297 304 318 309 304 272 306 285 308 332 322 316 341 325 324 306 297
315 308 309 304 300 296 282 278 277 231 291 286 316 241 238 198 194 211 219 246 263 283 280 209 254 259 279 278 293 289 295 293 308 316 320 334 310 333 343 334 321 312 309 299
310 309 303 297 300 302 283 270 263 261 213 303 314 305 278 221 236 208 215 230 248 274 248 236 255 248 281 277 280 280 290 356 327 313 328 316 309 358 348 328 323 314 310 310
311 305 302 302 303 306 285 286 172 209 151 270 282 308 289 220 205 213 198 209 227 220 223 236 259 278 273 257 263 283 278 3 351 330 307 332 355 13 352 329 321 316 310 309
306 304 300 296 288 264 226 359 42 346 135 246 275 265 220 223 170 198 202 192 195 213 209 226 245 264 202 260 275 292 306 355 347 348 349 335 16 357 355 338 331 324 312 318
309 302 299 296 279 248 260 245 217 152 240 243 266 267 252 206 179 190 184 185 158 204 242 238 246 268 214 243 258 302 316 348 1 345 42 355 8 11 352 353 332 333 337 343
305 304 302 267 211 196 273 102 122 174 237 256 242 260 293 219 254 149 181 172 202 207 222 231 246 236 224 252 287 317 359 352 360 359 1 6 11 12 356 355 342 340 353 6
303 287 208 183 82 315 247 193 213 179 187 223 247 240 258 292 312 276 197 188 223 235 217 221 229 260 267 263 262 316 17 10 6 5 1 359 8 12 358 3 350 353 8 11
315 326 295 360 347 255 214 225 208 164 226 211 231 239 245 251 263 275 275 258 180 253 157 239 228 288 58 82 178 108 24 7 27 31 21 16 17 16 4 8 16 2 4 16
320 301 305 304 287 234 243 239 255 202 241 166 243 301 235 167 266 264 266 303 279 260 159 253 253 314 82 128 126 98 322 33 24 38 35 20 32 33 30 10 25 31 4 19
254 203 233 238 239 263 246 218 204 224 336 357 332 79 103 230 262 258 210 237 245 329 264 253 308 59 98 109 120 120 5 42 42 42 42 33 40 43 44 39 36 27 15 21
270 250 245 248 189 230 317 333 320 329 331 324 319 308 240 217 254 279 244 236 257 248 229 359 85 21 53 102 144 34 9 44 37 50 40 43 32 41 51 39 51 45 31 28
272 271 251 251 331 307 299 319 340 353 316 303 301 235 190 184 247 235 268 228 228 200 254 357 24 338 68 112 138 188 28 75 58 57 39 47 51 44 45 34 45 47 41 39
272 262 277 301 314 307 309 336 340 306 306 299 282 282 246 200 219 233 207 204 197 269 247 1 48 19 40 130 128 161 148 71 69 70 58 54 51 60 55 51 47 47 46 46
288 266 295 312 320 324 313 315 304 310 296 331 311 266 311 147 264 263 9 42 8 345 2 9 1 347 220 165 118 114 108 80 82 78 73 77 72 65 61 52 51 64 54 51